Miscellaneous Local Product
Issued by NWS Hastings, NE

Home | Current Version | Previous Version | Text Only | Print | Product List | Glossary Off
Versions: 1 2 3 4 5 6 7 8 9 10 11 12 13 14 15 16 17 18 19 20 21 22 23 24 25 26 27 28 29 30 31 32 33 34 35 36 37 38 39 40 41 42 43 44 45 46 47 48 49 50

000
AXUS43 KGID 041302
MISGRI

GID CWA HOURLY WEATHER ROUNDUP
NATIONAL WEATHER SERVICE HASTINGS NE
800 AM CDT SAT JUL 04 2015

NOTE: "FAIR" INDICATES FEW OR NO CLOUDS BELOW 12,000 FEET WITH NO
SIGNIFICANT WEATHER AND/OR OBSTRUCTIONS TO VISIBILITY.

...SOUTH CENTRAL NEBRASKA...

CITY           SKY/WX    TMP DP  RH WIND       PRES   REMARKS
GRAND ISLAND   SUNNY     66  62  87 S6        30.00F FOG
HASTINGS       SUNNY     66  60  81 S7        30.01S
KEARNEY        SUNNY     64  61  88 S8        30.00F
ORD            MOSUNNY   65  62  90 S6        29.97F
YORK           SUNNY     63  61  94 S5        30.01F
AURORA         SUNNY     63  63  97 S3        30.01S FOG
LEXINGTON      PTSUNNY   65  62  90 SE9       29.99F
HOLDREGE       MOSUNNY   62  60  93 SE5       30.00F FOG
HEBRON         SUNNY     63  58  84 CALM      30.01S

...NEBRASKA PANHANDLE...

CITY           SKY/WX    TMP DP  RH WIND       PRES   REMARKS
CHADRON        SUNNY     70  60  70 SW3       29.91R
ALLIANCE       SUNNY     66  60  81 S10       29.95S
SCOTTSBLUFF    MOSUNNY   67  61  81 E10       29.94S
SIDNEY         PTSUNNY   66  61  84 S14       29.97F

...WESTERN AND NORTH CENTRAL NEBRASKA...

CITY           SKY/WX    TMP DP  RH WIND       PRES   REMARKS
VALENTINE      MOSUNNY   66  60  81 S10       29.94S
AINSWORTH      PTSUNNY   65  62  90 S10       29.96S
ONEILL         SUNNY     64  63  96 S6        29.97F FOG
BROKEN BOW     PTSUNNY   65  61  87 SE3       29.99S FOG
IMPERIAL       SUNNY     67  59  75 SE8       29.97F
NORTH PLATTE   MOSUNNY   64  60  87 E8        29.97F
MCCOOK         SUNNY     66  60  81 E7        29.98F

...EASTERN NEBRASKA...

CITY           SKY/WX    TMP DP  RH WIND       PRES   REMARKS
NORFOLK        SUNNY     63  61  93 CALM      29.99S FOG
SO SIOUX CITY  SUNNY     62  57  83 E3        29.99S
TEKAMAH        SUNNY     61  59  93 CALM      30.00S FOG
COLUMBUS       SUNNY     63  57  82 CALM      29.98F
ALBION         SUNNY     61  59  93 CALM      30.00F FOG
OMAHA EPPLEY   SUNNY     62  59  90 CALM      30.01S
OFFUTT AFB     SUNNY     60  60 100 NW1       30.00S
MILLARD        SUNNY     62  59  91 CALM      30.01S FOG
LINCOLN        SUNNY     65  60  84 CALM      30.02S HAZE
NEBRASKA CITY  SUNNY     63  61  94 CALM      30.01S
BEATRICE       SUNNY     63  59  89 CALM      30.02R
FALLS CITY     SUNNY     63  61  93 SE3       30.01R

...NORTHERN KANSAS...

CITY           SKY/WX    TMP DP  RH WIND       PRES   REMARKS
GOODLAND       MOSUNNY   66  61  84 S14       29.99F
HILL CITY      SUNNY     66  62  87 SE5       30.00S
NORTON         SUNNY     63  57  82 SE8       29.98F
PHILLIPSBURG   MOSUNNY   66  66 100 E3        30.00F FOG
SMITH CENTER   SUNNY     66  61  82 SE7       30.01S
HAYS           SUNNY     68  59  73 S7        30.00F
RUSSELL        PTSUNNY   68  65  90 S9        29.99F
CONCORDIA      SUNNY     65  59  81 CALM      30.01R
SALINA         SUNNY     68  60  75 CALM      30.00S
TOPEKA         FOG       63  63 100 CALM      30.00S VSB 1/4



USA.gov is the U.S. government's official web portal to all federal, state and local government web resources and services.